sat.trackr.live / text

‹ back to catalog

STARLINK-32536

NORAD 61925 · 2024-207P

PAYLOAD ACTIVE UNKNOWN

§ Identity

Operator
Country
US
Launch date
2024-11-11
Launch site
AFETR
Launch vehicle
Mass (kg)
RCS (m²)

Purposes: comms

External: N2YO · Heavens-Above · Gunter

§ Orbital elements

Epoch: 2026-05-25T04:11:57.132384Z

Period
94.27 min
Inclination
42.9989°
Eccentricity
0.0000899
Mean motion
15.27596554 rev/d
Perigee alt
482.4 km
Apogee alt
483.6 km
Semi-major
6,861.1 km
B*
5.3171e-4
RAAN
213.7569°
Arg perigee
285.7795°
Mean anomaly
74.2957°
Rev number
8,637

§ Raw data

STARLINK-325361 61925U 24207P   26145.17496681  .00014405  00000+0  53171-3 0  99912 61925  42.9989 213.7569 0000899 285.7795  74.2957 15.27596554 86375

JSON: /api/v1/satellites/61925 · /tle

For live sub-satellite position, see the globe view (requires WebGL).

§ Visibility from observer

Set your observer location to see the next 7 days of passes ≥ 10°. The values pass through the URL so the page stays shareable.

No JS? Fill the form by hand. The geolocation button needs JavaScript.